Printer-friendly version

IAU Minor Planet Center

Minor Planet Center

MPEC 2005-T84 : 2005 TG50

The following Minor Planet Electronic Circular may be linked-to from your own Web pages, but must not otherwise be redistributed electronically.


Read MPEC 2005-T83 Read MPEC 2005-T85


M.P.E.C. 2005-T84                                Issued 2005 Oct. 12, 11:57 UT

     The Minor Planet Electronic Circulars contain information on unusual
         minor planets and routine data on comets.  They are published
   on behalf of Commission 20 of the International Astronomical Union by the
          Minor Planet Center, Smithsonian Astrophysical Observatory,
                          Cambridge, MA 02138, U.S.A.

                  Supported in part by the Brinson Foundation
             Prepared using the Tamkin Foundation Computer Network

                              MPC@CFA.HARVARD.EDU
          URL http://cfa-www.harvard.edu/iau/mpc.html  ISSN 1523-6714

                                   2005 TG50

Observations:
     K05T50G* C2005 10 11.19444 00 38 51.07 +34 04 31.1          18.8 R ET084699
     K05T50G  C2005 10 11.21817 00 38 36.67 +34 04 33.1                 ET084699
     K05T50G  C2005 10 11.24193 00 38 21.97 +34 04 32.5                 ET084699
     K05T50G  C2005 10 11.26571 00 38 07.29 +34 04 30.4                 ET084699
     K05T50G  C2005 10 11.28726 00 37 54.09 +34 04 27.0          18.9 R ET084699
     K05T50G  C2005 10 11.28811 00 37 53.52 +34 04 26.6                 ET084699
     K05T50G  C2005 10 11.28894 00 37 52.99 +34 04 26.1                 ET084699
     K05T50G  C2005 10 11.28979 00 37 52.50 +34 04 25.5                 ET084699
     K05T50G  C2005 10 11.76679 00 33 41.07 +34 01 20.5          19.1 R ET084118
     K05T50G  C2005 10 11.77201 00 33 38.03 +34 01 20.6          19.0 R ET084118
     K05T50G  C2005 10 11.77683 00 33 35.22 +34 01 20.5          19.4 R ET084118
     K05T50G  C2005 10 11.78083 00 33 32.92 +34 01 20.6          19.1 R ET084118
     K05T50G  C2005 10 11.80856 00 33 17.52 +34 01 10.9          19.0 V ET084A17
     K05T50G  C2005 10 11.84714 00 32 54.86 +34 01 08.5          19.4 V ET084A17
     K05T50G  C2005 10 11.87682 00 32 37.20 +34 01 05.7          19.3 V ET084A17
     K05T50G  C2005 10 11.89093 00 32 28.74 +34 01 02.9          19.2 V ET084A17
     K05T50G  C2005 10 11.91770 00 32 12.72 +34 00 58.8          19.7 V ET084198
     K05T50G  C2005 10 11.91995 00 32 11.34 +34 00 57.8          19.7 V ET084198
     K05T50G  C2005 10 11.92041 00 32 11.07 +34 00 57.6          19.7 V ET084198
     K05T50G  C2005 10 12.21525 00 29 33.58 +33 59 55.7          19.2 R ET084854
     K05T50G  C2005 10 12.21622 00 29 33.01 +33 59 55.8          19.2 R ET084854
     K05T50G  C2005 10 12.21718 00 29 32.50 +33 59 56.1          19.2 R ET084854
     K05T50G  C2005 10 12.26995 00 28 59.52 +33 59 40.9          19.2 R ET084926
     K05T50G  C2005 10 12.27074 00 28 59.02 +33 59 40.3          19.0 R ET084926
     K05T50G  C2005 10 12.27153 00 28 58.50 +33 59 40.2          19.0 R ET084926

Observer details:
118 Modra.  Observer J. Vilagi.  0.6-m f/5.5 reflector + CCD.
198 Wildberg.  Observer R. Apitzsch.  0.35-m f/4.2 reflector + CCD.
699 Lowell Observatory-LONEOS.  Observer B. A. Skiff.  0.59-m LONEOS Schmidt
    + CCD.
854 Sabino Canyon Observatory, Tucson.  Observer J. E. McGaha.  0.36-m f/10.0
    Schmidt-Cassegrain + CCD.
926 Tenagra II Observatory.  Observers P. R. Holvorcem, M. Schwartz.  Measurer
    P. R. Holvorcem.  0.81-m f/7 Ritchey-Chretien + CCD.
A17 Guidestar Observatory, Weinheim.  Observers M. Emmerich, S. Melchert.
    0.36-m f/6 Schmidt-Cassegrain + CCD.

Orbital elements:
2005 TG50
Epoch 2005 Aug. 18.0 TT = JDT 2453600.5                 MPC
M 136.49034              (2000.0)            P               Q
n   1.11003721     Peri.  199.62813     -0.99568321     +0.09225202
a   0.9237994      Node   345.65362     -0.07869023     -0.89741595
e   0.1336971      Incl.    2.36456     -0.04922185     -0.43143270
P   0.89           H   24.6           G   0.15           U   8
Residuals in seconds of arc
051011 699  0.4+  1.0-    051011 118  0.5-  0.1+    051011 198  0.5+  0.5-
051011 699  1.1+  0.2-    051011 118  0.7-  0.1-    051012 854  1.6+  0.2-
051011 699  0.5-  0.3-    051011 118  0.3-  0.1-    051012 854  2.0+  0.1+
051011 699  0.8-  0.0     051011 A17  0.1-  0.4+    051012 854  3.0+  0.6+
051011 699  0.5+  0.5+    051011 A17  0.2+  0.2-    051012 926  1.8-  0.6-
051011 699  0.1-  0.3+    051011 A17  0.3+  0.7+    051012 926  1.9-  0.8-
051011 699  0.3-  0.0     051011 A17  0.1+  0.4+    051012 926  2.3-  0.6-
051011 699  0.1+  0.4-    051011 198  0.7+  0.0
051011 118  0.3-  0.2+    051011 198  0.4+  0.4-

Ephemeris:
2005 TG50                a,e,i = 0.92, 0.13, 2                   q = 0.8003
Date    TT    R. A. (2000) Decl.     Delta      r     Elong.  Phase     V
2005 10 07    01 16.02   +33 46.0    0.0518   1.045   151.1    27.6    19.5
2005 10 17    23 47.27   +32 50.3    0.0506   1.039   146.9    31.6    19.5
2005 10 27    22 37.24   +27 41.9    0.0557   1.030   129.3    48.3    20.2
2005 11 06    21 56.62   +22 09.0    0.0643   1.017   112.3    64.4    21.0
2005 11 16    21 34.95   +17 54.7    0.0734   1.002    97.9    77.9    21.7

Timothy B. Spahr             (C) Copyright 2005 MPC           M.P.E.C. 2005-T84

Read MPEC 2005-T83 Read MPEC 2005-T85


Our Web policy. Index to the CBAT/MPC/ICQ pages.


Valid HTML 4.01!